User: anonymous   Login
Location: Mt. Chestnut Observatory
(40.9038°N, 79.9956°W)
Time: 06:06:28
(UTC-04:00)
Language:

Cosmos 2034 Rocket - Orbit

View from above orbital plane
View from above orbital plane
View from above satellite
View from above satellite

Ground track
Ground track

The orbit data is extracted from the following two-line orbital elements,

1 20150U 89059B   15242.92820213 +.00000102 +00000-0 +90271-4 0  9996
2 20150 082.9382 220.9225 0027905 317.4294 097.4009 13.75607332309959
Epoch (UTC): 30 August 2015 22:16:36
Eccentricity: 0.0027905
inclination: 82.9382°
perigee height: 959 km
apogee height: 1000 km
right ascension of ascending node: 220.9225°
argument of perigee: 317.4294°
revolutions per day: 13.75607332
mean anomaly at epoch: 97.4009°
orbit number at epoch: 30995

The dashed part of the orbit path shows where the satellite is in the earth's shadow,  

DLR